Вернуться в каталог

HAWK-11C

АктивенВоенныеVLEO
NORAD 62381·PAYLOAD·🇺🇸 United States

Запущен Dec 21, 2024 с Vandenberg Space Force Base

Loading…

Ближайшие Пролёты (ближайшие 24 часа)

TLE

СвежийSource: Space-Track

Эпоха: Sep 14, 2026, 02:39 UTC

1 62381U 24247E   26257.11100464  .00005765  00000-0  19658-3 0  9993
2 62381  45.0032 161.2467 0003197   0.3240 359.7646 15.31359520 96630

Отслеживайте HAWK-11C в реальном времени с AllMySat

Download on the App Store